Weather History for Victoria, BC

Change the Weather History Date:

Thursday, January 2, 2014

  Actual Average Record
Temperature  
Mean Temperature 44 °F -  
Max Temperature 48 °F 44 °F 53 °F (2002)
Min Temperature 41 °F 33 °F 24 °F (2009)
Degree Days  
Heating Degree Days 20    
Moisture  
Dew Point 42 °F    
Average Humidity 94    
Maximum Humidity 100    
Minimum Humidity 76    
Precipitation  
Precipitation 0.12 in 0.18 in - ()
Sea Level Pressure  
Sea Level Pressure 30.03 in    
Wind  
Wind Speed 5 mph ()    
Max Wind Speed 13 mph    
Max Gust Speed 18 mph    
Visibility 5.6 miles    
Events Rain    
Averages and records for this station are not official NWS values.
T = Trace of Precipitation, MM = Missing Value Source: Averaged Metar Reports

Daily Weather History Graph

Daily Weather History Graph

Search for Another Location

Airport:

Trip Planner

Search our weather history database for the weather conditions in past years. The results will help you decide how hot, cold, wet, or windy it might be!

Date:

Astronomy

Jan. 02, 2014 Rise Set
Actual Time 8:06 AM PST 4:29 PM PST
Civil Twilight 7:29 AM PST 5:06 PM PST
Nautical Twilight 6:49 AM PST 5:46 PM PST
Astronomical Twilight 6:11 AM PST 6:24 PM PST
Moon 8:41 AM PST (1/2) 6:45 PM PST (1/2)
Length of Visible Light 9h 37m
Length of Day
8h 23m
Waxing Crescent, 3% of the Moon is Illuminated
Jan 2
Waxing Crescent
Jan 7
First Quarter
Jan 15
Full
Jan 23
Last Quarter
Jan 30
New

Hourly Weather History & Observations

Time (PST) Temp. Windchill Dew Point Humidity Pressure Visibility Wind Dir Wind Speed Gust Speed Precip Events Conditions
12:00 AM 42.8 °F 40.1 °F 42.8 °F 100% 30.27 in 1.2 mi West 4.6 mph - N/A   Overcast
1:00 AM 42.8 °F 41.1 °F 42.8 °F 100% 30.25 in 3.0 mi West 3.5 mph - N/A Rain Light Rain
2:00 AM 42.8 °F - 41.0 °F 93% 30.24 in 4.0 mi Calm Calm - N/A Rain Light Rain
3:00 AM 41.0 °F - 41.0 °F 100% 30.23 in 4.0 mi WNW 2.3 mph - N/A Rain Light Rain
4:00 AM 42 °F - 42 °F 98% 30.22 in 2 mi SW 4.6 mph - - Rain Light Rain
4:00 AM 41.0 °F 38.0 °F 41.0 °F 100% 30.22 in 2.0 mi WSW 4.6 mph - N/A Rain Light Rain
5:00 AM 41.0 °F - 41.0 °F 100% 30.18 in 2.0 mi Calm Calm - N/A Rain Light Rain
5:26 AM 41.0 °F - 41.0 °F 100% 30.18 in 2.0 mi SSW 2.3 mph - N/A   Overcast
6:00 AM 41.0 °F 39.0 °F 41.0 °F 100% 30.16 in 2.0 mi SW 3.5 mph - N/A Rain Light Rain
7:00 AM 42.8 °F - 42.8 °F 100% 30.13 in 2.0 mi Calm Calm - N/A Rain Light Rain
7:40 AM 42.8 °F 40.1 °F 42.8 °F 100% 30.11 in 2.0 mi ESE 4.6 mph - N/A   Overcast
8:00 AM 42.8 °F 41.1 °F 41.0 °F 93% 30.10 in 6.0 mi SSE 3.5 mph - N/A   Overcast
9:00 AM 44.6 °F 42.2 °F 42.8 °F 93% 30.09 in 12.0 mi SE 4.6 mph - N/A   Overcast
10:00 AM 44 °F - 43 °F 94% 30.07 in 12 mi SSE 4.6 mph - -   Partly Cloudy
10:00 AM 44.6 °F 42.2 °F 42.8 °F 93% 30.07 in 12.0 mi SSE 4.6 mph - N/A   Overcast
11:00 AM 44.6 °F 39.2 °F 42.8 °F 93% 30.05 in 6.0 mi SE 10.4 mph - N/A Rain Light Rain
11:29 AM 44.6 °F 40.2 °F 42.8 °F 93% 30.03 in 6.0 mi SE 8.1 mph - N/A Rain Light Rain
12:00 PM 44.6 °F 40.2 °F 42.8 °F 93% 30.02 in 7.0 mi SSE 8.1 mph - N/A Rain Light Rain
1:00 PM 44.6 °F 40.2 °F 42.8 °F 93% 29.97 in 4.0 mi SE 8.1 mph - N/A Rain Light Rain
1:32 PM 44.6 °F 39.2 °F 44.6 °F 100% 29.95 in 5.0 mi SE 10.4 mph - N/A Rain Light Rain
2:00 PM 44.6 °F 38.8 °F 42.8 °F 93% 29.94 in 3.0 mi SE 11.5 mph - N/A Rain Light Rain
2:22 PM 44.6 °F 39.7 °F 44.6 °F 100% 29.93 in 2.0 mi SSE 9.2 mph - N/A Rain Light Rain
2:39 PM 44.6 °F 38.4 °F 42.8 °F 93% 29.92 in 3.0 mi SE 12.7 mph 18.4 mph N/A Rain Light Rain
3:00 PM 44.6 °F 38.4 °F 42.8 °F 93% 29.92 in 5.0 mi SE 12.7 mph - N/A Rain Light Rain
4:00 PM 44 °F - 44 °F 97% 29.91 in 6 mi SE 10.4 mph - - Rain Light Rain
4:00 PM 44.6 °F 39.7 °F 42.8 °F 93% 29.91 in 6.0 mi SE 9.2 mph - N/A Rain Light Rain
5:00 PM 44.6 °F 38.4 °F 44.6 °F 100% 29.89 in 10.0 mi SSE 12.7 mph - N/A Rain Light Rain
6:00 PM 46.4 °F 44.3 °F 44.6 °F 93% 29.88 in 10.0 mi SSW 4.6 mph - N/A Rain Light Rain
7:00 PM 46.4 °F 42.9 °F 44.6 °F 93% 29.87 in 20.0 mi South 6.9 mph - N/A Rain Light Rain
7:16 PM 46.4 °F 41.5 °F 44.6 °F 93% 29.86 in 30.0 mi South 10.4 mph - N/A   Overcast
8:00 PM 48.2 °F - 42.8 °F 82% 29.87 in 30.0 mi WSW 5.8 mph - N/A   Mostly Cloudy
9:00 PM 44.6 °F 39.7 °F 41.0 °F 87% 29.90 in 30.0 mi West 9.2 mph - N/A   Mostly Cloudy
10:00 PM 45 °F - 41 °F 79% 29.94 in 28 mi West 8.1 mph - -   Partly Cloudy
10:00 PM 44.6 °F 40.2 °F 41.0 °F 87% 29.94 in 30.0 mi WSW 8.1 mph - N/A   Overcast
11:00 PM 42.8 °F - 35.6 °F 76% 29.96 in 30.0 mi Variable 2.3 mph - N/A   Partly Cloudy